Regional Weather Roundup
Issued by NWS

Home | Current Version | Previous Version | Graphics & Text | Print | Product List | Glossary On
Versions: 1 2 3 4 5 6 7 8 9 10 11 12 13 14 15 16 17 18 19 20 21 22 23 24 25 26 27 28 29 30 31 32 33 34 35 36 37 38 39 40 41 42 43 44 45 46 47 48 49 50
954
ASUS43 KIND 191059
RWRIN

WEATHER ROUNDUP FOR INDIANA
NATIONAL WEATHER SERVICE INDIANAPOLIS IN
700 AM EDT THU APR 19 2018

NOTE: "FAIR" INDICATES FEW OR NO CLOUDS BELOW 12,000 FEET WITH NO
SIGNIFICANT WEATHER AND/OR OBSTRUCTIONS TO VISIBILITY.

* - STATION DOES NOT REPORT WEATHER SUCH AS PRECIPITATION OR FOG.

+ - STATION NOT QUALITY CONTROLLED BY THE NATIONAL WEATHER SERVICE.
    USE DATA WITH CAUTION...ESPECIALLY DEWPOINT AND RELATIVE
    HUMIDITY OBSERVATIONS.

INZ001>003-010>013-019-020-191200-
NORTHWEST INDIANA

CITY           SKY/WX    TMP DP  RH WIND       PRES   REMARKS
GARY /AIRPORT/ PTCLDY    37  34  87 N18       30.13R WCI  27
KNOX *+        FAIR      32  32 100 N7        30.10R WCI  26
MONTICELLO +   CLOUDY    33  32  94 N10       30.08R WCI  25

$$

LMZ046-743>745-191200-
SOUTHERN LAKE MICHIGAN

STATION/POSITION TIME  TEMP    WIND        PRES    WAVE
                       AIR SEA DIR/SP/G            HT
                 (UTC) (F)     (DEG/KT/KT) (MB)    (FT)
BURNS HARBOR     1040   38      10/ 16/ 20 1020.3R
MICHIGAN CITY    1030   37     350/ 21/ 23   N/A

$$

INZ004-005-014>016-021>024-191200-
NORTH CENTRAL INDIANA

CITY           SKY/WX    TMP DP  RH WIND       PRES   REMARKS
ELKHART        FAIR      32  30  93 N3        30.07
GOSHEN         FAIR      33  30  88 N12       30.06R WCI  24
ROCHESTER +    FAIR      36  32  87 N7        30.07R WCI  30
SOUTH BEND     FAIR      32  31  96 N10       30.09R WCI  24
WARSAW +       MOCLDY    32  32 100 N8        30.05R WCI  25

$$

INZ006>009-017-018-025>027-191200-
NORTHEAST INDIANA

CITY           SKY/WX    TMP DP  RH WIND       PRES   REMARKS
ANGOLA *+      FAIR      32  30  93 NW8G15    30.03R WCI  25
FORT WAYNE     FLURRIES  33  32  96 N8        30.04R WCI  26
KENDALLVILLE + FAIR      32  31  96 N8        30.04R WCI  25

$$

INZ028-029-035-036-043>045-051>053-191200-
WEST CENTRAL INDIANA

CITY           SKY/WX    TMP DP  RH WIND       PRES   REMARKS
GREENCASTLE +  CLOUDY    32  30  93 NW7       30.09R WCI  26
LAFAYETTE      CLOUDY    35  32  88 N13G20    30.10R WCI  26
TERRE HAUTE    CLOUDY    35  29  78 NW12G25   30.12R WCI  27

$$

INZ030>032-037>040-046>048-054>057-064-065-191200-
CENTRAL INDIANA

CITY           SKY/WX    TMP DP  RH WIND       PRES   REMARKS
COLUMBUS       CLOUDY    37 N/A N/A W12G20    30.06  WCI  30
INDIANAPOLIS   CLOUDY    35  31  85 NW17      30.06R WCI  25
-EAGLE CREEK   CLOUDY    36  30  79 NW15      30.05R WCI  27
KOKOMO +       LGT RAIN  33  32  96 N18       30.05R WCI  22
MT COMFORT *+  CLOUDY    34  34 100 NW10      30.04R WCI  26
SHELBYVILLE    CLOUDY    36  30  79 W18       30.03R WCI  26
ZIONSVILLE +   CLOUDY    33  32  98 NW10      30.05R WCI  24

$$

INZ033-034-041-042-049-050-058-059-191200-
EAST CENTRAL INDIANA

CITY           SKY/WX    TMP DP  RH WIND       PRES   REMARKS
MUNCIE         CLOUDY    36  33  89 N14       30.02R WCI  27
RICHMOND +     LGT SNOW  32  32 100 W16G22    29.99R WCI  21

$$

INZ060-061-067>069-081>083-085>088-191200-
SOUTHWEST INDIANA

CITY           SKY/WX    TMP DP  RH WIND       PRES   REMARKS
EVANSVILLE     CLOUDY    38  26  62 NW10G21   30.17R WCI  31
HUNTINGBURG +  CLOUDY    37  28  70 NW17G23   30.14R WCI  27

$$

INZ062-063-066-070>080-084-089>092-191200-
SOUTH CENTRAL AND SOUTHEAST INDIANA

CITY           SKY/WX    TMP DP  RH WIND       PRES   REMARKS
BLOOMINGTON    CLOUDY    35  29  78 NW9       30.08R WCI  28
FRENCH LICK *+ CLOUDY    36  27  69 W8        30.11R WCI  29
SEYMOUR +      CLOUDY    37  28  70 W10G17    30.08  WCI  30

$$





USA.gov is the U.S. government's official web portal to all federal, state and local government web resources and services.